[[{"header":{"parameterUnit":"m.s-1","parameterCategory":2,"la1":30.2991,"la2":30.254,"lo1":-89.0895,"lo2":-89.0444,"dy":0.0017,"dx":0.0017,"nx":28,"ny":28,"refTime":"2025-01-18T03:00:00:Z","depth":"0","parameterNumber":2,"parameterNumberName":"U-component_of_CURRENTS"},"data":[0,0,0,0,0,0,0,0,0,0,0,0,0,0,0,0,0,0,0,0,0,0,0,0,0,0,0,0,0,0,0,0,0,0,0,0,0,0,0,0,0,0,0,0,0,0,0,0,0,0,0,0,0,0,0,0,0,0,-0.2276,-0.2276,0,-0.2215,-0.2214,-0.2213,-0.2106,-0.2105,-0.2103,-0.2102,-0.1961,-0.1959,-0.1957,0,0,0,0,0,0,0,0,0,0,0,0,0,-0.2194,-0.2196,-0.2276,-0.2276,-0.2275,-0.2215,-0.2214,-0.2212,-0.2107,-0.2105,-0.2103,-0.2101,-0.1962,-0.1959,-0.1957,0,0,0,0,0,0,0,0,0,0,0,0,0,-0.2186,-0.2197,-0.2276,-0.2219,-0.2214,-0.2215,-0.2214,-0.2212,-0.2107,-0.2105,-0.2103,-0.21,-0.1963,-0.196,-0.1956,-0.1981,0,0,-0.1946,-0.1944,0,0,0,0,0,0,0,0,-0.2187,-0.2189,-0.2228,-0.2223,-0.2217,-0.217,-0.2133,-0.2132,-0.2108,-0.2142,-0.2102,-0.2099,-0.2029,-0.202,-0.2007,-0.1974,-0.1968,-0.1945,-0.1943,-0.1942,-0.1941,0,0,0,0,0,0,0,-0.2188,-0.219,-0.2246,-0.2228,-0.2221,-0.216,-0.2157,-0.2132,-0.2094,-0.2139,-0.2132,-0.2135,-0.2024,-0.2011,-0.2003,-0.1966,-0.1945,-0.1942,-0.194,-0.1939,-0.1982,-0.1985,0,0,0,0,0,0,-0.2215,-0.2192,-0.2248,-0.2245,-0.2202,-0.2165,-0.2161,-0.2184,-0.2095,-0.2082,-0.2137,-0.213,-0.2018,-0.2007,-0.1998,-0.2046,-0.1942,-0.1938,-0.1936,-0.1979,-0.1983,-0.1986,0,0,0,0,0,0,-0.2213,-0.2221,-0.2251,-0.2219,-0.2219,-0.217,-0.2195,-0.2184,-0.2179,-0.2096,-0.2079,-0.2146,-0.2016,-0.2003,-0.1998,-0.2038,-0.1937,-0.1934,-0.1975,-0.198,-0.1985,-0.2126,0,0,0,0,0,0,-0.2212,-0.2222,-0.224,-0.2222,-0.2222,-0.2286,-0.2198,-0.2184,-0.2186,-0.2177,-0.2099,-0.2082,-0.2013,-0.2004,-0.1995,-0.2032,-0.1931,-0.1971,-0.1977,-0.1983,-0.2118,-0.2136,-0.2151,0,0,0,0,0,-0.2209,-0.2265,-0.2242,-0.2248,-0.2253,-0.2289,-0.2285,-0.2235,-0.219,-0.2216,-0.2155,-0.2085,-0.2036,-0.2004,-0.1992,-0.2029,-0.1968,-0.1976,-0.1983,-0.211,-0.2132,-0.2151,0,0,0,0,0,0,-0.2232,-0.226,-0.2233,-0.229,-0.2299,-0.2274,-0.2293,-0.2259,-0.2233,-0.2218,-0.2122,-0.2105,-0.2109,-0.2069,-0.2036,-0.2065,-0.1993,-0.1998,-0.2094,-0.2114,-0.2131,-0.2122,-0.1928,0,0,0,0,0,-0.225,-0.2302,-0.2306,-0.235,-0.2364,-0.233,-0.2334,-0.2311,-0.2288,-0.2273,-0.2215,-0.2165,-0.2133,-0.2123,-0.2085,-0.2111,-0.205,-0.2132,-0.2149,-0.2163,-0.2152,-0.2125,-0.2136,-0.201,-0.201,-0.201,0,0,-0.2265,-0.2291,-0.2314,-0.2358,-0.2355,-0.2392,-0.2327,-0.2363,-0.2374,-0.2265,-0.2264,-0.2216,-0.2153,-0.2165,-0.2167,-0.2136,-0.217,-0.2172,-0.2184,-0.2165,-0.2133,-0.2145,-0.2155,-0.2015,-0.2014,-0.2014,0,0,-0.2342,-0.2356,-0.2424,-0.2443,-0.2471,-0.2456,-0.2479,-0.2472,-0.2453,-0.2463,-0.2379,-0.2369,-0.2322,-0.2289,-0.2263,-0.2361,-0.2251,-0.2353,-0.2434,-0.2409,-0.2418,-0.2425,-0.2367,-0.2368,-0.2371,-0.2372,-0.2372,0,-0.2357,-0.2431,-0.2447,-0.251,-0.2521,-0.2496,-0.2547,-0.2542,-0.2527,-0.251,-0.2484,-0.2418,-0.238,-0.2376,-0.2409,-0.2396,-0.2343,-0.2358,-0.2427,-0.2433,-0.2438,-0.2376,-0.2375,-0.2379,-0.2378,-0.2378,-0.2377,0,-0.2471,-0.252,-0.2568,-0.2629,-0.2652,-0.2701,-0.2697,-0.2703,-0.2671,-0.2645,-0.2636,-0.2592,-0.2539,-0.2553,-0.2505,-0.2529,-0.2467,-0.2442,-0.2369,-0.2458,-0.2389,-0.2385,-0.239,-0.2387,-0.2385,-0.2383,0,0,-0.2512,-0.2627,-0.2636,-0.2648,-0.2711,-0.2725,-0.2773,-0.2781,-0.2762,-0.2769,-0.2747,-0.2744,-0.2696,-0.2666,-0.2622,-0.2624,-0.263,-0.2556,-0.2551,-0.2484,-0.2539,-0.243,-0.2414,-0.2606,-0.2607,-0.2607,-0.2478,0,-0.258,-0.2706,-0.2746,-0.2807,-0.2847,-0.2837,-0.2858,-0.2858,-0.2841,-0.2816,-0.2799,-0.2759,-0.2747,-0.271,-0.2722,-0.2628,-0.2625,-0.2664,-0.2474,-0.2468,-0.2348,-0.2409,-0.2305,-0.2175,-0.2473,-0.2472,-0.2472,0,-0.2655,-0.2721,-0.2826,-0.2843,-0.2857,-0.2886,-0.2867,-0.2884,-0.287,-0.2852,-0.2846,-0.2794,-0.2788,-0.2766,-0.269,-0.2706,-0.2638,-0.2588,-0.2581,-0.2419,-0.2352,-0.2134,-0.2155,-0.2143,-0.2465,-0.2465,-0.2466,0,-0.2638,-0.2743,-0.2817,-0.2837,-0.2886,-0.2893,-0.2894,-0.2891,-0.287,-0.2864,-0.2828,-0.2821,-0.2761,-0.2729,-0.2622,-0.2646,-0.2515,-0.253,-0.2374,-0.2363,-0.2205,-0.218,-0.2173,-0.2487,-0.2487,-0.2487,-0.2488,0,-0.2678,-0.2704,-0.2805,-0.2833,-0.2832,-0.2878,-0.2862,-0.2855,-0.2854,-0.2776,-0.2829,-0.2749,-0.2743,-0.2656,-0.2612,-0.2455,-0.2499,-0.2378,-0.2328,-0.2253,-0.2235,-0.2157,-0.2178,-0.2482,-0.2484,-0.2485,-0.2485,0,-0.2637,-0.2728,-0.2774,-0.2839,-0.2832,-0.2827,-0.2814,-0.2735,-0.2807,-0.2709,-0.2695,-0.267,-0.2547,-0.2523,-0.2418,-0.2382,-0.223,-0.2219,-0.2115,-0.2056,-0.1924,-0.1955,-0.184,-0.1796,-0.2045,-0.2042,-0.2039,0,-0.2626,-0.2669,-0.2745,-0.267,-0.2687,-0.2682,-0.2587,-0.268,-0.2592,-0.2606,-0.2489,-0.2436,-0.2308,-0.2176,-0.2105,-0.2012,-0.2042,-0.1864,-0.1917,-0.1895,-0.1894,-0.1927,-0.1902,-0.1763,-0.1758,-0.1754,-0.1751,0,-0.2516,-0.2568,-0.2556,-0.2462,-0.2375,-0.2316,-0.2229,-0.2213,-0.2242,-0.2227,-0.2122,-0.2085,-0.1998,-0.1862,-0.1788,-0.1732,-0.182,-0.1777,-0.1788,-0.1699,-0.1697,-0.1635,-0.1859,-0.1716,-0.1719,-0.1722,-0.1724,-0.1725,-0.2318,-0.2287,-0.2225,-0.2105,-0.2014,-0.1857,-0.1776,-0.1694,-0.1631,-0.1545,-0.1694,-0.1608,-0.1678,-0.1572,-0.152,-0.1428,-0.1518,-0.1411,-0.1455,-0.1493,-0.1448,-0.1579,-0.1364,-0.1365,-0.1367,-0.1368,-0.1369,0,-0.1947,-0.1906,-0.1793,-0.1648,-0.1466,-0.1534,-0.14,-0.1315,-0.1182,-0.1133,-0.112,-0.1198,-0.1149,-0.1222,-0.1198,-0.1146,-0.1163,-0.1135,-0.119,-0.1185,-0.1309,-0.1297,-0.1016,-0.1016,-0.1016,-0.1016,-0.1016,-0.1016,-0.1695,-0.1475,-0.1464,-0.1095,-0.1023,-0.0819,-0.0754,-0.0696,-0.0665,-0.0586,-0.06,-0.0671,-0.0916,-0.1095,-0.1063,-0.1017,-0.104,-0.0974,-0.1039,-0.1171,-0.1202,-0.1232,-0.1228,-0.0936,-0.0936,-0.0869,-0.0869,-0.0868]},{"header":{"parameterUnit":"m.s-1","parameterCategory":2,"la1":30.2991,"la2":30.254,"lo1":-89.0895,"lo2":-89.0444,"dy":0.0017,"dx":0.0017,"nx":28,"ny":28,"refTime":"2025-01-18T03:00:00:Z","depth":"0","parameterNumber":3,"parameterNumberName":"V-component_of_CURRENTS"},"data":[0,0,0,0,0,0,0,0,0,0,0,0,0,0,0,0,0,0,0,0,0,0,0,0,0,0,0,0,0,0,0,0,0,0,0,0,0,0,0,0,0,0,0,0,0,0,0,0,0,0,0,0,0,0,0,0,0,0,0.1033,0.1035,0,0.1154,0.1155,0.1156,0.1226,0.1226,0.1226,0.1227,0.1381,0.1384,0.1388,0,0,0,0,0,0,0,0,0,0,0,0,0,0.0933,0.0934,0.1033,0.1035,0.1036,0.1153,0.1155,0.1157,0.1226,0.1226,0.1226,0.1227,0.1379,0.1384,0.1389,0,0,0,0,0,0,0,0,0,0,0,0,0,0.1007,0.0934,0.1033,0.1084,0.109,0.1153,0.1155,0.1157,0.1226,0.1226,0.1226,0.1227,0.1378,0.1384,0.1389,0.1419,0,0,0.1407,0.141,0,0,0,0,0,0,0,0,0.1003,0.1011,0.1075,0.1081,0.1088,0.1175,0.1176,0.1246,0.1226,0.1175,0.1227,0.1227,0.1314,0.1325,0.1348,0.1426,0.1433,0.1408,0.1411,0.1414,0.1415,0,0,0,0,0,0,0,0.0997,0.1006,0.1081,0.1077,0.1084,0.1125,0.1136,0.119,0.1242,0.1179,0.1185,0.1197,0.1318,0.1342,0.1352,0.1435,0.1408,0.1413,0.1416,0.1419,0.1541,0.1541,0,0,0,0,0,0,0.0978,0.1001,0.1078,0.1085,0.1045,0.1126,0.1138,0.1147,0.1241,0.1255,0.1197,0.12,0.1332,0.1345,0.1357,0.1388,0.1414,0.1419,0.1423,0.1541,0.1541,0.154,0,0,0,0,0,0,0.0975,0.0983,0.1073,0.1046,0.106,0.1127,0.1137,0.1149,0.1168,0.1254,0.1269,0.1202,0.1332,0.1349,0.1399,0.1394,0.1422,0.1427,0.1541,0.1541,0.1541,0.1454,0,0,0,0,0,0,0.0971,0.0981,0.0967,0.1044,0.1061,0.109,0.1137,0.1151,0.1175,0.118,0.1264,0.1279,0.1334,0.139,0.1405,0.1403,0.1432,0.1542,0.1541,0.1541,0.1458,0.1451,0.1446,0,0,0,0,0,0.0967,0.0935,0.0965,0.0974,0.1043,0.1089,0.11,0.115,0.1174,0.1171,0.1235,0.1276,0.1398,0.1395,0.1412,0.1412,0.1542,0.1541,0.1541,0.146,0.1452,0.1446,0,0,0,0,0,0,0.0864,0.0942,0.0976,0.0964,0.1018,0.11,0.1091,0.114,0.1188,0.1192,0.1277,0.1296,0.1341,0.1385,0.138,0.1445,0.1475,0.1478,0.1408,0.1401,0.1395,0.1364,0.1437,0,0,0,0,0,0.084,0.0844,0.0928,0.0914,0.0937,0.1016,0.1037,0.108,0.114,0.1161,0.1223,0.1289,0.1353,0.1381,0.144,0.1473,0.1479,0.1483,0.1477,0.1472,0.1458,0.1468,0.1461,0.1538,0.1538,0.1538,0,0,0.0789,0.0836,0.0832,0.0894,0.0937,0.0959,0.1028,0.1051,0.1074,0.1171,0.1201,0.1272,0.1358,0.1401,0.1423,0.1435,0.1446,0.1471,0.1466,0.1455,0.1467,0.1459,0.1452,0.1538,0.1538,0.1538,0,0,0.0702,0.0738,0.0722,0.0769,0.0836,0.0894,0.0897,0.098,0.1016,0.1064,0.1144,0.1209,0.1291,0.1359,0.1404,0.1399,0.1417,0.1413,0.1356,0.1366,0.1359,0.1353,0.1315,0.1307,0.1406,0.1406,0.1405,0,0.0637,0.0644,0.0718,0.0729,0.0754,0.0859,0.0855,0.091,0.0999,0.1023,0.1055,0.1191,0.1273,0.1339,0.1346,0.1386,0.1369,0.1376,0.1355,0.135,0.1345,0.1309,0.13,0.1401,0.1402,0.1402,0.1403,0,0.0555,0.0569,0.0559,0.0617,0.065,0.066,0.0758,0.0789,0.085,0.0916,0.0985,0.1099,0.1174,0.1221,0.129,0.1308,0.1297,0.1347,0.1366,0.1332,0.1296,0.1288,0.1395,0.1397,0.1398,0.1399,0,0,0.0388,0.0485,0.0479,0.0501,0.0596,0.0613,0.0649,0.0713,0.0723,0.0822,0.0839,0.0985,0.1044,0.11,0.1196,0.1226,0.1194,0.1262,0.1265,0.121,0.1161,0.1111,0.1098,0.1228,0.1228,0.1227,0.1134,0,0.0302,0.0305,0.0376,0.0369,0.0383,0.0488,0.0508,0.0581,0.0653,0.0692,0.0828,0.0885,0.0999,0.1033,0.1082,0.1186,0.1176,0.1211,0.1215,0.1214,0.1164,0.109,0.1126,0.1043,0.1128,0.1126,0.1126,0,0.0189,0.0225,0.021,0.0275,0.0283,0.0293,0.0341,0.0378,0.0477,0.0528,0.0613,0.0715,0.0814,0.0898,0.1006,0.1015,0.1061,0.1128,0.1126,0.1106,0.1153,0.1101,0.1027,0.1141,0.1115,0.1116,0.1117,0,0.0043,0.0092,0.0081,0.0105,0.0196,0.0195,0.0234,0.0318,0.037,0.0423,0.0455,0.0564,0.0637,0.0721,0.0886,0.0926,0.0968,0.1043,0.1022,0.1018,0.1063,0.1064,0.1092,0.1054,0.1054,0.1054,0.1055,0,-0.0077,-0.0092,0.0013,0.001,0.0016,0.0081,0.0092,0.0141,0.0216,0.0293,0.0363,0.0425,0.0597,0.0676,0.0795,0.0874,0.0887,0.0976,0.0987,0.103,0.1029,0.1145,0.1198,0.1051,0.1052,0.1052,0.1053,0,-0.0228,-0.017,-0.0149,-0.0068,-0.0039,-0.0036,0.0069,0.0124,0.0124,0.0221,0.0239,0.0323,0.0393,0.0527,0.0656,0.0755,0.088,0.0848,0.0859,0.0872,0.0959,0.1005,0.0979,0.1028,0.0793,0.0791,0.0789,0,-0.0294,-0.0304,-0.0192,-0.01,-0.0048,-0.0009,0.0085,0.0105,0.0193,0.0194,0.0273,0.0271,0.0338,0.0422,0.0566,0.0659,0.0787,0.0739,0.0839,0.0927,0.0989,0.1021,0.1069,0.0854,0.0853,0.0853,0.0852,0,-0.0368,-0.0328,-0.0266,-0.007,0.0044,0.014,0.0244,0.0278,0.0331,0.0356,0.039,0.0369,0.0355,0.0447,0.0488,0.058,0.0808,0.0723,0.0843,0.1035,0.1048,0.1113,0.092,0.0845,0.0846,0.0847,0.0847,0.0847,-0.0363,-0.0306,-0.0149,0.0035,0.0182,0.0346,0.041,0.0506,0.0578,0.0627,0.0578,0.057,0.0487,0.0527,0.0595,0.0742,0.0737,0.0859,0.0899,0.0916,0.099,0.0734,0.0664,0.0663,0.0663,0.0663,0.0662,0,-0.0263,-0.0162,0.0002,0.0242,0.0441,0.0471,0.0608,0.0664,0.076,0.076,0.0781,0.0816,0.0799,0.0759,0.0856,0.0963,0.1026,0.1022,0.1137,0.1175,0.0983,0.1018,0.0989,0.0989,0.0989,0.0989,0.0989,0.0989,-0.0168,0.0009,0.0109,0.0475,0.0631,0.0826,0.0893,0.092,0.092,0.0978,0.1012,0.1011,0.0982,0.1087,0.1207,0.1221,0.1358,0.1301,0.1357,0.1309,0.1301,0.1292,0.1341,0.138,0.138,0.1583,0.1585,0.1587]}],[{"header":{"parameterUnit":"m.s-1","parameterCategory":2,"la1":30.2991,"la2":30.254,"lo1":-89.0895,"lo2":-89.0444,"dy":0.0017,"dx":0.0017,"nx":28,"ny":28,"refTime":"2025-01-18T03:00:00:Z","depth":"2","parameterNumber":2,"parameterNumberName":"U-component_of_CURRENTS"},"data":[0,0,0,0,0,0,0,0,0,0,0,0,0,0,0,0,0,0,0,0,0,0,0,0,0,0,0,0,0,0,0,0,0,0,0,0,0,0,0,0,0,0,0,0,0,0,0,0,0,0,0,0,0,0,0,0,0,0,-0.2133,-0.2132,0,-0.2089,-0.2089,-0.2089,-0.2063,-0.2063,-0.2062,-0.2061,-0.2128,-0.2131,-0.2133,0,0,0,0,0,0,0,0,0,0,0,0,0,-0.225,-0.2248,-0.2133,-0.2132,-0.2131,-0.2089,-0.2089,-0.2089,-0.2064,-0.2063,-0.2062,-0.2061,-0.2127,-0.213,-0.2133,0,0,0,0,0,0,0,0,0,0,0,0,0,-0.2208,-0.2247,-0.2133,-0.2108,-0.2105,-0.2089,-0.2089,-0.2089,-0.2064,-0.2063,-0.2062,-0.2061,-0.2127,-0.213,-0.2134,-0.2178,0,0,-0.2145,-0.2146,0,0,0,0,0,0,0,0,-0.221,-0.2205,-0.2113,-0.211,-0.2106,-0.2075,-0.2154,-0.2122,-0.2064,-0.2086,-0.2061,-0.206,-0.2117,-0.2122,-0.2123,-0.2181,-0.2184,-0.2145,-0.2147,-0.2149,-0.215,0,0,0,0,0,0,0,-0.2213,-0.2206,-0.2122,-0.2112,-0.2108,-0.2117,-0.2111,-0.2149,-0.2116,-0.2084,-0.2081,-0.2066,-0.2117,-0.212,-0.2125,-0.2185,-0.2145,-0.2148,-0.2151,-0.2152,-0.2266,-0.2267,0,0,0,0,0,0,-0.2203,-0.2209,-0.2124,-0.212,-0.2149,-0.2116,-0.2108,-0.2091,-0.2112,-0.2112,-0.2067,-0.2065,-0.2114,-0.2121,-0.2127,-0.2184,-0.2149,-0.2152,-0.2155,-0.2265,-0.2266,-0.2267,0,0,0,0,0,0,-0.2206,-0.2196,-0.2125,-0.2159,-0.215,-0.2114,-0.2096,-0.2091,-0.2121,-0.2097,-0.2099,-0.2104,-0.2114,-0.2122,-0.2188,-0.2186,-0.2154,-0.2157,-0.2264,-0.2266,-0.2267,-0.2296,0,0,0,0,0,0,-0.221,-0.2198,-0.2204,-0.2158,-0.2147,-0.2125,-0.2096,-0.2091,-0.2108,-0.2106,-0.2129,-0.2132,-0.2113,-0.2183,-0.2192,-0.2191,-0.216,-0.2263,-0.2265,-0.2267,-0.2294,-0.2298,-0.2301,0,0,0,0,0,-0.2214,-0.2211,-0.2205,-0.2195,-0.215,-0.2125,-0.2123,-0.2098,-0.2112,-0.2125,-0.2153,-0.2133,-0.2197,-0.2189,-0.2199,-0.2198,-0.2263,-0.2265,-0.2266,-0.2292,-0.2297,-0.2301,0,0,0,0,0,0,-0.2247,-0.2206,-0.2199,-0.2179,-0.2161,-0.2118,-0.2129,-0.2129,-0.2162,-0.2185,-0.2173,-0.2179,-0.2227,-0.2224,-0.2214,-0.2233,-0.2216,-0.222,-0.2231,-0.2236,-0.224,-0.2208,-0.2163,0,0,0,0,0,-0.2261,-0.2267,-0.2217,-0.2212,-0.2204,-0.2186,-0.2185,-0.2178,-0.2185,-0.2199,-0.2221,-0.2237,-0.2238,-0.2251,-0.2266,-0.2304,-0.2266,-0.23,-0.2304,-0.2307,-0.2287,-0.2252,-0.225,-0.2274,-0.2274,-0.2274,0,0,-0.2271,-0.2253,-0.2254,-0.2224,-0.2215,-0.2229,-0.2185,-0.2199,-0.2218,-0.2208,-0.2277,-0.2275,-0.2258,-0.2279,-0.2297,-0.2278,-0.2281,-0.231,-0.2312,-0.229,-0.2254,-0.2251,-0.2249,-0.2275,-0.2275,-0.2274,0,0,-0.2301,-0.2282,-0.2303,-0.2306,-0.2302,-0.2286,-0.2302,-0.2298,-0.2298,-0.2354,-0.2334,-0.2332,-0.238,-0.2329,-0.2312,-0.2355,-0.2314,-0.2368,-0.2351,-0.2318,-0.2315,-0.2312,-0.2258,-0.2249,-0.2356,-0.2356,-0.2356,0,-0.2331,-0.2323,-0.2306,-0.2337,-0.2334,-0.2323,-0.2344,-0.2353,-0.238,-0.2366,-0.2385,-0.239,-0.2383,-0.2343,-0.2336,-0.2358,-0.2335,-0.2335,-0.2321,-0.2317,-0.2313,-0.2258,-0.2248,-0.2357,-0.2357,-0.2357,-0.2357,0,-0.2371,-0.2383,-0.2396,-0.243,-0.2437,-0.245,-0.2444,-0.2468,-0.2478,-0.2462,-0.2457,-0.2441,-0.241,-0.2408,-0.2382,-0.2339,-0.233,-0.234,-0.2304,-0.2312,-0.2254,-0.2243,-0.236,-0.2359,-0.2359,-0.2358,0,0,-0.2397,-0.2417,-0.243,-0.2439,-0.2479,-0.2475,-0.2515,-0.2489,-0.2478,-0.2512,-0.2474,-0.2457,-0.2423,-0.2399,-0.2364,-0.2325,-0.2269,-0.2318,-0.2315,-0.2253,-0.2186,-0.2122,-0.2104,-0.2289,-0.2287,-0.2286,-0.2154,0,-0.2432,-0.2478,-0.2481,-0.2528,-0.2537,-0.2536,-0.2548,-0.2547,-0.2529,-0.2507,-0.2456,-0.2429,-0.2426,-0.239,-0.2357,-0.2293,-0.2244,-0.2303,-0.2195,-0.219,-0.2124,-0.209,-0.1964,-0.1831,-0.2143,-0.2142,-0.214,0,-0.2469,-0.2487,-0.2521,-0.2522,-0.2523,-0.2553,-0.2525,-0.2535,-0.2497,-0.2475,-0.2441,-0.2412,-0.234,-0.2348,-0.2243,-0.2288,-0.2229,-0.2189,-0.2183,-0.21,-0.2106,-0.1875,-0.18,-0.2122,-0.2124,-0.2125,-0.2126,0,-0.2464,-0.2507,-0.2516,-0.2533,-0.2549,-0.2543,-0.2541,-0.2521,-0.2481,-0.2444,-0.2403,-0.236,-0.2297,-0.2257,-0.2167,-0.2205,-0.2051,-0.2094,-0.1979,-0.1974,-0.1827,-0.1811,-0.2011,-0.2011,-0.2011,-0.2012,-0.2012,0,-0.2474,-0.2485,-0.2511,-0.2521,-0.2501,-0.2534,-0.2488,-0.2478,-0.2437,-0.2365,-0.2372,-0.2289,-0.2273,-0.2187,-0.2144,-0.2009,-0.2029,-0.1948,-0.1928,-0.1835,-0.1822,-0.2051,-0.2058,-0.2007,-0.2008,-0.2009,-0.201,0,-0.2439,-0.2477,-0.247,-0.2487,-0.2493,-0.2473,-0.244,-0.2397,-0.2382,-0.2289,-0.227,-0.2209,-0.2102,-0.2069,-0.1964,-0.1937,-0.1845,-0.1791,-0.1672,-0.1641,-0.1799,-0.1809,-0.1658,-0.1654,-0.1651,-0.1649,-0.1647,0,-0.2405,-0.2402,-0.2421,-0.2408,-0.2406,-0.2387,-0.236,-0.2359,-0.2306,-0.221,-0.2148,-0.2046,-0.1919,-0.1763,-0.1712,-0.162,-0.1703,-0.146,-0.151,-0.1762,-0.1759,-0.1774,-0.1787,-0.1323,-0.1318,-0.1315,-0.1312,0,-0.2296,-0.231,-0.2299,-0.2289,-0.2275,-0.2249,-0.2218,-0.2169,-0.214,-0.2043,-0.1893,-0.1791,-0.1661,-0.1495,-0.1415,-0.1362,-0.1481,-0.1381,-0.1638,-0.145,-0.144,-0.144,-0.1465,-0.1278,-0.1282,-0.1284,-0.1286,-0.1287,-0.2184,-0.215,-0.2151,-0.2113,-0.2122,-0.2097,-0.1984,-0.196,-0.1841,-0.1669,-0.1676,-0.1476,-0.1425,-0.1225,-0.114,-0.1115,-0.1232,-0.1199,-0.1212,-0.1229,-0.1232,-0.122,-0.1015,-0.1016,-0.1018,-0.1019,-0.102,0,-0.2023,-0.2008,-0.1969,-0.1932,-0.1852,-0.1949,-0.1859,-0.171,-0.1508,-0.1457,-0.1308,-0.1111,-0.0987,-0.0961,-0.0864,-0.0846,-0.0868,-0.0818,-0.0848,-0.088,-0.0909,-0.0899,-0.0591,-0.059,-0.0589,-0.0588,0,0,-0.1946,-0.1841,-0.1819,-0.165,-0.1646,-0.1507,-0.1418,-0.1268,-0.1162,-0.0976,-0.0884,-0.0935,-0.0918,-0.0755,-0.0712,-0.0631,-0.0752,-0.06,-0.0942,-0.1008,-0.1036,-0.1121,-0.114,0,0,0,0,0]},{"header":{"parameterUnit":"m.s-1","parameterCategory":2,"la1":30.2991,"la2":30.254,"lo1":-89.0895,"lo2":-89.0444,"dy":0.0017,"dx":0.0017,"nx":28,"ny":28,"refTime":"2025-01-18T03:00:00:Z","depth":"2","parameterNumber":3,"parameterNumberName":"V-component_of_CURRENTS"},"data":[0,0,0,0,0,0,0,0,0,0,0,0,0,0,0,0,0,0,0,0,0,0,0,0,0,0,0,0,0,0,0,0,0,0,0,0,0,0,0,0,0,0,0,0,0,0,0,0,0,0,0,0,0,0,0,0,0,0,-0.0739,-0.0738,0,-0.0686,-0.0685,-0.0684,-0.0645,-0.0645,-0.0645,-0.0645,-0.0537,-0.0535,-0.0532,0,0,0,0,0,0,0,0,0,0,0,0,0,-0.0765,-0.0765,-0.0739,-0.0738,-0.0738,-0.0686,-0.0685,-0.0684,-0.0645,-0.0645,-0.0645,-0.0645,-0.0538,-0.0535,-0.0531,0,0,0,0,0,0,0,0,0,0,0,0,0,-0.0735,-0.0765,-0.0739,-0.0714,-0.0712,-0.0686,-0.0685,-0.0683,-0.0645,-0.0645,-0.0645,-0.0645,-0.0539,-0.0535,-0.0531,-0.0508,0,0,-0.0518,-0.0516,0,0,0,0,0,0,0,0,-0.0737,-0.0733,-0.0718,-0.0716,-0.0713,-0.0674,-0.0655,-0.0623,-0.0645,-0.0668,-0.0645,-0.0645,-0.058,-0.0572,-0.056,-0.0503,-0.0498,-0.0518,-0.0515,-0.0513,-0.0512,0,0,0,0,0,0,0,-0.0739,-0.0735,-0.0715,-0.0718,-0.0715,-0.0692,-0.0688,-0.0648,-0.0622,-0.0666,-0.0663,-0.0662,-0.0578,-0.0564,-0.0557,-0.0496,-0.0518,-0.0514,-0.0512,-0.051,-0.0351,-0.0349,0,0,0,0,0,0,-0.0753,-0.0738,-0.0717,-0.0714,-0.0728,-0.0692,-0.0687,-0.0685,-0.0623,-0.0615,-0.0662,-0.066,-0.0571,-0.0562,-0.0553,-0.045,-0.0514,-0.051,-0.0507,-0.0352,-0.035,-0.0349,0,0,0,0,0,0,-0.0754,-0.0752,-0.0719,-0.0726,-0.0721,-0.0692,-0.069,-0.0684,-0.0658,-0.0622,-0.0612,-0.0641,-0.057,-0.0558,-0.0499,-0.0448,-0.0508,-0.0504,-0.0354,-0.0352,-0.0349,-0.029,0,0,0,0,0,0,-0.0755,-0.0752,-0.0751,-0.0728,-0.0721,-0.0693,-0.069,-0.0683,-0.0659,-0.0656,-0.0601,-0.0592,-0.0569,-0.0505,-0.0495,-0.0444,-0.0501,-0.0357,-0.0353,-0.035,-0.0294,-0.0286,-0.0279,0,0,0,0,0,-0.0756,-0.0752,-0.0751,-0.0748,-0.0722,-0.0693,-0.0686,-0.0664,-0.0658,-0.0641,-0.06,-0.0593,-0.0477,-0.05,-0.0488,-0.0435,-0.0358,-0.0354,-0.035,-0.0298,-0.0287,-0.0279,0,0,0,0,0,0,-0.0756,-0.0747,-0.0746,-0.0738,-0.0715,-0.0687,-0.067,-0.0658,-0.0613,-0.0606,-0.0572,-0.0559,-0.049,-0.0474,-0.0501,-0.0381,-0.0415,-0.0409,-0.0379,-0.0369,-0.0362,-0.0355,-0.0497,0,0,0,0,0,-0.076,-0.0758,-0.0739,-0.0732,-0.0719,-0.0694,-0.0679,-0.0663,-0.0627,-0.0607,-0.0566,-0.0519,-0.0467,-0.0429,-0.0392,-0.0323,-0.0305,-0.0281,-0.0273,-0.0267,-0.0253,-0.0173,-0.0157,-0.0336,-0.0336,-0.0336,0,0,-0.076,-0.0754,-0.0754,-0.0733,-0.0712,-0.0673,-0.0682,-0.0654,-0.0608,-0.0601,-0.052,-0.0495,-0.0447,-0.0371,-0.0337,-0.0346,-0.0211,-0.0262,-0.0256,-0.0246,-0.0168,-0.015,-0.0134,-0.0333,-0.0334,-0.0334,0,0,-0.0752,-0.075,-0.074,-0.0712,-0.0684,-0.066,-0.065,-0.061,-0.0578,-0.0516,-0.049,-0.0429,-0.0361,-0.0299,-0.0263,-0.0188,-0.0183,-0.0184,-0.012,-0.0043,-0.0027,-0.0013,0.0009,0.0025,-0.0167,-0.0166,-0.0166,0,-0.0751,-0.0733,-0.073,-0.0696,-0.0664,-0.0649,-0.0605,-0.0566,-0.0508,-0.0473,-0.0484,-0.0358,-0.0317,-0.0202,-0.0172,-0.0165,-0.0149,-0.0159,-0.0031,-0.0017,-0.0003,0.0016,0.0033,-0.0163,-0.0163,-0.0164,-0.0164,0,-0.0725,-0.07,-0.0685,-0.0637,-0.0599,-0.0564,-0.0509,-0.0467,-0.0437,-0.0398,-0.0304,-0.0249,-0.0175,-0.0145,-0.0131,-0.0007,-0.0039,-0.0041,-0.0055,0.0018,0.0033,0.005,-0.0158,-0.016,-0.0161,-0.0161,0,0,-0.0746,-0.0683,-0.0675,-0.064,-0.0564,-0.0533,-0.0448,-0.0373,-0.0327,-0.0261,-0.0185,-0.0078,-0.0068,-0.0026,0.0005,0.0086,0.0192,0.0067,0.0069,0.0088,0.0324,0.0245,0.0255,0.021,0.0213,0.0216,0.0288,0,-0.0723,-0.0667,-0.0626,-0.0546,-0.0507,-0.0448,-0.0374,-0.0302,-0.0251,-0.0178,-0.0098,-0.0027,-0.0014,0.0015,0.0105,0.0161,0.0241,0.017,0.0251,0.0253,0.0175,0.0274,0.0261,0.032,0.0304,0.0306,0.0308,0,-0.0705,-0.0669,-0.0601,-0.051,-0.0485,-0.0428,-0.0326,-0.026,-0.0153,-0.0116,-0.0026,0.0014,0.0148,0.0133,0.0298,0.0246,0.0299,0.0341,0.0345,0.0266,0.0206,0.0249,0.0349,0.0335,0.0333,0.0331,0.0329,0,-0.0739,-0.0647,-0.0598,-0.0562,-0.0457,-0.0409,-0.0348,-0.0246,-0.0194,-0.0081,-0.0047,0.0096,0.0152,0.0267,0.0332,0.0332,0.0476,0.0487,0.0468,0.046,0.0464,0.045,0.0622,0.0622,0.0622,0.0621,0.0621,0,-0.0737,-0.0697,-0.0614,-0.0587,-0.0529,-0.0432,-0.0364,-0.0298,-0.0191,-0.0138,-0.0025,0.0021,0.0191,0.0273,0.0352,0.0436,0.0495,0.0501,0.0496,0.0478,0.0465,0.0488,0.0471,0.0624,0.0623,0.0623,0.0622,0,-0.0796,-0.0734,-0.0689,-0.0588,-0.0551,-0.0519,-0.04,-0.0361,-0.025,-0.0179,-0.0141,-0.0008,0.0091,0.0216,0.0377,0.0438,0.0535,0.0544,0.0474,0.046,0.0468,0.0454,0.0583,0.0582,0.058,0.0579,0.0578,0,-0.0827,-0.0808,-0.0731,-0.0715,-0.0673,-0.0601,-0.0558,-0.0421,-0.0375,-0.0224,-0.0204,-0.0078,-0.0017,0.0166,0.0308,0.0446,0.0467,0.05,0.0525,0.0494,0.0476,0.0464,0.0452,0.0549,0.0548,0.0547,0.0546,0,-0.0893,-0.0874,-0.0851,-0.0826,-0.0784,-0.0727,-0.0646,-0.0621,-0.0469,-0.0411,-0.0338,-0.0267,-0.0061,0.0087,0.0263,0.0345,0.0484,0.0482,0.0521,0.0533,0.046,0.0442,0.0432,0.0537,0.0538,0.0539,0.0539,0.054,-0.0965,-0.098,-0.0955,-0.0933,-0.0894,-0.0858,-0.0825,-0.0759,-0.0707,-0.0585,-0.0493,-0.0359,-0.0128,0.0107,0.0241,0.0387,0.0409,0.0476,0.0481,0.0486,0.0442,0.0369,0.0418,0.0418,0.0418,0.0418,0.0419,0,-0.1047,-0.1042,-0.1048,-0.1015,-0.1001,-0.0939,-0.0876,-0.0827,-0.0807,-0.0692,-0.0595,-0.0372,-0.0181,0.0047,0.0273,0.0406,0.0442,0.0422,0.0465,0.0472,0.0478,0.0437,0.041,0.0411,0.0411,0.0411,0,0,-0.1084,-0.1108,-0.1103,-0.1099,-0.1075,-0.1018,-0.0989,-0.0935,-0.083,-0.0749,-0.0628,-0.0441,-0.0154,-0.0002,0.0184,0.0304,0.0351,0.031,0.0305,0.0343,0.0347,0.0498,0.0438,0,0,0,0,0]}],[{"header":{"parameterUnit":"m.s-1","parameterCategory":2,"la1":30.2991,"la2":30.254,"lo1":-89.0895,"lo2":-89.0444,"dy":0.0017,"dx":0.0017,"nx":28,"ny":28,"refTime":"2025-01-18T03:00:00:Z","depth":"4","parameterNumber":2,"parameterNumberName":"U-component_of_CURRENTS"},"data":[0,0,0,0,0,0,0,0,0,0,0,0,0,0,0,0,0,0,0,0,0,0,0,0,0,0,0,0,0,0,0,0,0,0,0,0,0,0,0,0,0,0,0,0,0,0,0,0,0,0,0,0,0,0,0,0,0,0,-0.0847,-0.0848,0,-0.0903,-0.0903,-0.0904,-0.0946,-0.0947,-0.0947,-0.0948,-0.1026,-0.1028,-0.1029,0,0,0,0,0,0,0,0,0,0,0,0,0,-0.0766,-0.0767,-0.0847,-0.0848,-0.0849,-0.0903,-0.0903,-0.0904,-0.0946,-0.0947,-0.0947,-0.0948,-0.1026,-0.1028,-0.103,0,0,0,0,0,0,0,0,0,0,0,0,0,-0.0809,-0.0768,-0.0847,-0.0877,-0.088,-0.0903,-0.0903,-0.0904,-0.0946,-0.0947,-0.0947,-0.0948,-0.1025,-0.1027,-0.103,-0.1031,0,0,-0.1037,-0.1039,0,0,0,0,0,0,0,0,-0.0806,-0.0811,-0.0872,-0.0875,-0.0879,-0.0919,-0.0904,-0.0948,-0.0946,-0.092,-0.0948,-0.0948,-0.0993,-0.0998,-0.1005,-0.1035,-0.1038,-0.1038,-0.1039,-0.104,-0.1041,0,0,0,0,0,0,0,-0.0803,-0.0809,-0.0868,-0.0872,-0.0877,-0.0884,-0.089,-0.0912,-0.0951,-0.0922,-0.0926,-0.0933,-0.0995,-0.1003,-0.1007,-0.1039,-0.1038,-0.104,-0.1041,-0.1042,-0.114,-0.1141,0,0,0,0,0,0,-0.0798,-0.0807,-0.0867,-0.087,-0.0844,-0.0885,-0.0892,-0.0905,-0.0951,-0.0959,-0.0932,-0.0935,-0.0998,-0.1004,-0.101,-0.1076,-0.104,-0.1043,-0.1044,-0.1139,-0.114,-0.1141,0,0,0,0,0,0,-0.0796,-0.0803,-0.0864,-0.084,-0.0848,-0.0885,-0.0899,-0.0905,-0.0932,-0.0958,-0.0967,-0.0955,-0.0999,-0.1007,-0.1059,-0.1077,-0.1044,-0.1046,-0.1138,-0.1139,-0.1141,-0.1167,0,0,0,0,0,0,-0.0794,-0.0802,-0.0828,-0.084,-0.085,-0.0902,-0.0899,-0.0906,-0.0935,-0.0939,-0.098,-0.0987,-0.1,-0.1055,-0.1061,-0.108,-0.1048,-0.1136,-0.1138,-0.114,-0.1165,-0.117,-0.1174,0,0,0,0,0,-0.0791,-0.0818,-0.0829,-0.0838,-0.0878,-0.0904,-0.091,-0.0937,-0.0935,-0.0961,-0.0988,-0.0987,-0.1072,-0.1059,-0.1066,-0.1085,-0.1135,-0.1138,-0.114,-0.1163,-0.1169,-0.1173,0,0,0,0,0,0,-0.0791,-0.0825,-0.0838,-0.0874,-0.0899,-0.0912,-0.0938,-0.0945,-0.0983,-0.0993,-0.1006,-0.1017,-0.1064,-0.1074,-0.1058,-0.1119,-0.1101,-0.1105,-0.1116,-0.1121,-0.1126,-0.1122,-0.105,0,0,0,0,0,-0.0804,-0.0833,-0.0861,-0.0888,-0.0905,-0.0921,-0.094,-0.0957,-0.0982,-0.0999,-0.1029,-0.1056,-0.1075,-0.11,-0.1124,-0.1163,-0.115,-0.1178,-0.1182,-0.1186,-0.1188,-0.1185,-0.1189,-0.115,-0.115,-0.115,0,0,-0.0799,-0.083,-0.0841,-0.0891,-0.0909,-0.0928,-0.0935,-0.0969,-0.0991,-0.1002,-0.1055,-0.1074,-0.1089,-0.1133,-0.1154,-0.1147,-0.119,-0.1189,-0.1192,-0.1192,-0.1188,-0.1192,-0.1195,-0.1151,-0.1151,-0.1151,0,0,-0.0801,-0.0844,-0.0868,-0.0894,-0.094,-0.0952,-0.0964,-0.0999,-0.1032,-0.1081,-0.1085,-0.1127,-0.1167,-0.1185,-0.1192,-0.1236,-0.1209,-0.1236,-0.1261,-0.1258,-0.1261,-0.1263,-0.1246,-0.1246,-0.1242,-0.1242,-0.1242,0,-0.0806,-0.0835,-0.0877,-0.0907,-0.0925,-0.0959,-0.0977,-0.1011,-0.1062,-0.1085,-0.1109,-0.116,-0.1192,-0.1211,-0.1238,-0.1247,-0.1227,-0.1238,-0.1262,-0.1264,-0.1266,-0.1248,-0.1248,-0.1244,-0.1244,-0.1243,-0.1243,0,-0.0812,-0.0847,-0.0862,-0.0907,-0.0937,-0.0961,-0.1006,-0.1052,-0.1091,-0.1115,-0.1171,-0.1217,-0.125,-0.1261,-0.1271,-0.1293,-0.1268,-0.1262,-0.1245,-0.1272,-0.1251,-0.125,-0.1246,-0.1245,-0.1245,-0.1245,0,0,-0.0794,-0.0855,-0.0864,-0.0884,-0.0942,-0.0962,-0.1012,-0.1058,-0.1082,-0.1154,-0.1179,-0.1247,-0.1276,-0.1288,-0.1303,-0.131,-0.1325,-0.1298,-0.1297,-0.1273,-0.1297,-0.1237,-0.123,-0.1312,-0.1312,-0.1312,-0.1275,0,-0.0789,-0.083,-0.0868,-0.0898,-0.0916,-0.0969,-0.1004,-0.1055,-0.1108,-0.115,-0.1204,-0.124,-0.1282,-0.1303,-0.1325,-0.1316,-0.1326,-0.1334,-0.1282,-0.1281,-0.1217,-0.1229,-0.1313,-0.1274,-0.1274,-0.1274,-0.1274,0,-0.0781,-0.0814,-0.0844,-0.0892,-0.0907,-0.0931,-0.0992,-0.1039,-0.1101,-0.1145,-0.1198,-0.1229,-0.1276,-0.1301,-0.1322,-0.1319,-0.1324,-0.1314,-0.1312,-0.1246,-0.122,-0.1245,-0.1273,-0.1273,-0.1273,-0.1273,-0.1273,0,-0.0733,-0.0794,-0.0819,-0.0836,-0.0898,-0.0928,-0.0968,-0.1033,-0.1073,-0.1144,-0.1158,-0.1218,-0.1248,-0.1266,-0.1305,-0.1304,-0.1296,-0.129,-0.1235,-0.123,-0.1283,-0.1281,-0.13,-0.13,-0.13,-0.13,-0.13,0,-0.0697,-0.0719,-0.0802,-0.0811,-0.0849,-0.0906,-0.0951,-0.1003,-0.1059,-0.1093,-0.1159,-0.1179,-0.124,-0.1255,-0.1281,-0.1261,-0.1291,-0.1236,-0.1218,-0.1295,-0.1295,-0.1282,-0.1281,-0.1299,-0.1299,-0.1299,-0.1299,0,-0.0635,-0.0681,-0.0722,-0.0799,-0.0825,-0.0861,-0.0938,-0.0956,-0.1023,-0.1064,-0.1084,-0.1142,-0.1171,-0.1209,-0.1231,-0.1219,-0.1211,-0.12,-0.1275,-0.1261,-0.1145,-0.1146,-0.1108,-0.1106,-0.1104,-0.1102,-0.1101,0,-0.0606,-0.0624,-0.0717,-0.0734,-0.0771,-0.0833,-0.0856,-0.0938,-0.0962,-0.1043,-0.1042,-0.1084,-0.1129,-0.1095,-0.1152,-0.1163,-0.117,-0.114,-0.1153,-0.114,-0.1127,-0.113,-0.1134,-0.1097,-0.1097,-0.1096,-0.1096,0,-0.0564,-0.061,-0.0639,-0.0682,-0.0713,-0.0755,-0.0804,-0.0815,-0.0913,-0.0961,-0.0992,-0.1013,-0.103,-0.106,-0.1074,-0.1092,-0.1141,-0.1119,-0.1123,-0.1135,-0.1127,-0.1116,-0.1121,-0.1089,-0.109,-0.109,-0.1091,0,-0.0543,-0.0551,-0.0592,-0.0628,-0.0652,-0.0666,-0.0714,-0.0748,-0.0791,-0.0892,-0.0907,-0.0968,-0.1031,-0.1023,-0.1044,-0.1046,-0.1035,-0.1002,-0.1012,-0.1021,-0.1013,-0.0992,-0.0892,0,0,0,0,0,-0.0524,-0.0509,-0.0529,-0.0551,-0.0569,-0.0594,-0.0661,-0.0711,-0.0807,-0.0809,-0.0865,-0.0898,-0.0928,-0.0952,-0.0938,-0.0992,-0.1028,-0.0968,-0.0992,-0.1049,-0.1057,-0.1059,0,0,0,0,0,0,-0.0494,-0.0497,-0.0505,-0.0482,-0.0478,-0.0497,-0.0542,-0.0615,-0.0635,-0.0737,-0.0759,-0.083,-0.0868,-0.0923,-0.0912,-0.0921,-0.0917,-0.1013,-0.1011,-0.1044,-0.1052,-0.1058,-0.1063,0,0,0,0,0]},{"header":{"parameterUnit":"m.s-1","parameterCategory":2,"la1":30.2991,"la2":30.254,"lo1":-89.0895,"lo2":-89.0444,"dy":0.0017,"dx":0.0017,"nx":28,"ny":28,"refTime":"2025-01-18T03:00:00:Z","depth":"4","parameterNumber":3,"parameterNumberName":"V-component_of_CURRENTS"},"data":[0,0,0,0,0,0,0,0,0,0,0,0,0,0,0,0,0,0,0,0,0,0,0,0,0,0,0,0,0,0,0,0,0,0,0,0,0,0,0,0,0,0,0,0,0,0,0,0,0,0,0,0,0,0,0,0,0,0,-0.0447,-0.0447,0,-0.0443,-0.0443,-0.0443,-0.0443,-0.0443,-0.0443,-0.0444,-0.0436,-0.0436,-0.0436,0,0,0,0,0,0,0,0,0,0,0,0,0,-0.046,-0.046,-0.0447,-0.0447,-0.0447,-0.0443,-0.0443,-0.0442,-0.0443,-0.0443,-0.0444,-0.0444,-0.0436,-0.0436,-0.0436,0,0,0,0,0,0,0,0,0,0,0,0,0,-0.0455,-0.046,-0.0447,-0.0447,-0.0447,-0.0443,-0.0443,-0.0442,-0.0443,-0.0443,-0.0444,-0.0444,-0.0436,-0.0436,-0.0436,-0.0431,0,0,-0.0434,-0.0434,0,0,0,0,0,0,0,0,-0.0455,-0.0455,-0.0447,-0.0447,-0.0447,-0.0443,-0.0444,-0.0439,-0.0443,-0.0445,-0.0444,-0.0444,-0.0438,-0.0438,-0.0437,-0.0431,-0.0431,-0.0434,-0.0434,-0.0434,-0.0434,0,0,0,0,0,0,0,-0.0456,-0.0455,-0.0445,-0.0447,-0.0447,-0.0448,-0.0447,-0.0443,-0.0441,-0.0445,-0.0445,-0.0444,-0.0438,-0.0437,-0.0437,-0.0431,-0.0434,-0.0434,-0.0434,-0.0434,-0.0464,-0.0465,0,0,0,0,0,0,-0.0456,-0.0455,-0.0446,-0.0445,-0.0451,-0.0448,-0.0447,-0.0445,-0.0441,-0.0441,-0.0444,-0.0444,-0.0438,-0.0437,-0.0436,-0.0477,-0.0434,-0.0434,-0.0433,-0.0463,-0.0464,-0.0465,0,0,0,0,0,0,-0.0456,-0.0455,-0.0446,-0.045,-0.0449,-0.0447,-0.0445,-0.0444,-0.0448,-0.044,-0.044,-0.0448,-0.0438,-0.0437,-0.0445,-0.0475,-0.0433,-0.0433,-0.0462,-0.0463,-0.0465,-0.0529,0,0,0,0,0,0,-0.0456,-0.0455,-0.0461,-0.045,-0.0449,-0.0454,-0.0444,-0.0444,-0.0447,-0.0447,-0.0444,-0.0443,-0.0438,-0.0446,-0.0444,-0.0474,-0.0433,-0.046,-0.0462,-0.0464,-0.0526,-0.0533,-0.0539,0,0,0,0,0,-0.0457,-0.0462,-0.0461,-0.0461,-0.0455,-0.0454,-0.0454,-0.0453,-0.0447,-0.0455,-0.0454,-0.0444,-0.0457,-0.0446,-0.0444,-0.0475,-0.0459,-0.0462,-0.0464,-0.0523,-0.0531,-0.0539,0,0,0,0,0,0,-0.0466,-0.0462,-0.0461,-0.0464,-0.0465,-0.0454,-0.0462,-0.0456,-0.046,-0.0461,-0.0451,-0.0451,-0.0475,-0.046,-0.0447,-0.0489,-0.0459,-0.0461,-0.0504,-0.0512,-0.0518,-0.0521,-0.0433,0,0,0,0,0,-0.0472,-0.0478,-0.0472,-0.0475,-0.0477,-0.0469,-0.0471,-0.0469,-0.0466,-0.0468,-0.0467,-0.0469,-0.0483,-0.0484,-0.0491,-0.0504,-0.0463,-0.0523,-0.053,-0.0536,-0.0537,-0.0515,-0.0519,-0.0473,-0.0473,-0.0473,0,0,-0.0473,-0.0474,-0.0476,-0.0478,-0.0477,-0.0494,-0.0471,-0.0475,-0.0492,-0.0466,-0.0492,-0.0493,-0.0492,-0.0519,-0.0527,-0.0508,-0.052,-0.0539,-0.0543,-0.0541,-0.0517,-0.0522,-0.0526,-0.0474,-0.0474,-0.0474,0,0,-0.0485,-0.0482,-0.0497,-0.0505,-0.051,-0.051,-0.0513,-0.0511,-0.0516,-0.0533,-0.053,-0.0546,-0.0554,-0.0566,-0.0571,-0.0613,-0.0561,-0.0617,-0.0647,-0.0626,-0.063,-0.0632,-0.0554,-0.0549,-0.0615,-0.0615,-0.0615,0,-0.0492,-0.0507,-0.0501,-0.0523,-0.0533,-0.0521,-0.0543,-0.0549,-0.0552,-0.0555,-0.0552,-0.0576,-0.0581,-0.0612,-0.0636,-0.063,-0.0584,-0.0619,-0.0634,-0.0636,-0.0637,-0.0557,-0.0551,-0.0618,-0.0618,-0.0617,-0.0617,0,-0.052,-0.0536,-0.0545,-0.0573,-0.0584,-0.0597,-0.0606,-0.0616,-0.0618,-0.062,-0.0645,-0.065,-0.0661,-0.0675,-0.0672,-0.0694,-0.0644,-0.0649,-0.0613,-0.0646,-0.0558,-0.0551,-0.0623,-0.0622,-0.0621,-0.062,0,0,-0.0524,-0.0559,-0.0565,-0.0581,-0.0612,-0.0617,-0.0651,-0.0668,-0.0675,-0.0692,-0.0701,-0.0745,-0.0734,-0.0739,-0.0737,-0.0727,-0.07,-0.0696,-0.0693,-0.0614,-0.0603,-0.0529,-0.0512,-0.0705,-0.0705,-0.0705,-0.0525,0,-0.0551,-0.0597,-0.0611,-0.065,-0.0671,-0.0677,-0.0703,-0.0717,-0.0724,-0.073,-0.0738,-0.075,-0.0762,-0.0762,-0.0763,-0.0718,-0.0688,-0.0745,-0.0586,-0.058,-0.0509,-0.0506,-0.0705,-0.0519,-0.0517,-0.0516,-0.0515,0,-0.058,-0.0605,-0.0655,-0.0678,-0.0686,-0.0711,-0.0734,-0.0754,-0.0764,-0.0767,-0.0783,-0.0773,-0.0774,-0.0776,-0.071,-0.074,-0.0681,-0.0638,-0.063,-0.0536,-0.0494,-0.0487,-0.05,-0.0502,-0.0503,-0.0504,-0.0504,0,-0.0587,-0.063,-0.0669,-0.0684,-0.0718,-0.0734,-0.0747,-0.0766,-0.0773,-0.0785,-0.0775,-0.0779,-0.0755,-0.0716,-0.0634,-0.0668,-0.0524,-0.0555,-0.0421,-0.0412,-0.0503,-0.0503,-0.0499,-0.0499,-0.05,-0.05,-0.0501,0,-0.0607,-0.0634,-0.0672,-0.0696,-0.0726,-0.074,-0.0767,-0.078,-0.0784,-0.0784,-0.079,-0.0767,-0.0741,-0.0657,-0.0607,-0.0466,-0.0494,-0.0411,-0.037,-0.0529,-0.0534,-0.0494,-0.0496,-0.0494,-0.0495,-0.0496,-0.0498,0,-0.0613,-0.0643,-0.0684,-0.0723,-0.0737,-0.0757,-0.0781,-0.079,-0.0787,-0.0783,-0.0781,-0.0734,-0.0618,-0.0544,-0.0435,-0.0399,-0.0293,-0.0233,-0.0347,-0.0318,-0.0197,-0.0205,-0.0075,-0.0071,-0.0068,-0.0065,-0.0063,0,-0.062,-0.0647,-0.0709,-0.0731,-0.0753,-0.0782,-0.0803,-0.0809,-0.0811,-0.0755,-0.0742,-0.0621,-0.058,-0.0343,-0.0289,-0.0133,-0.0136,-0.0072,-0.0207,-0.0185,-0.0158,-0.0171,-0.0182,-0.0058,-0.0057,-0.0056,-0.0055,0,-0.0628,-0.0659,-0.0689,-0.0743,-0.0774,-0.0804,-0.0822,-0.0816,-0.0803,-0.0795,-0.0681,-0.0571,-0.0414,-0.0296,-0.0145,-0.0063,-0.0125,-0.0038,-0.0047,-0.0174,-0.0162,-0.0142,-0.0157,-0.0044,-0.0045,-0.0046,-0.0047,0,-0.063,-0.0648,-0.0692,-0.0733,-0.0776,-0.0798,-0.0816,-0.0785,-0.0771,-0.0706,-0.0659,-0.0511,-0.0437,-0.025,-0.0129,-0.0016,-0.0029,-0.005,-0.0058,-0.007,-0.0147,-0.0137,0.0039,0,0,0,0,0,-0.0626,-0.0637,-0.0675,-0.0712,-0.0757,-0.0782,-0.0811,-0.0818,-0.08,-0.0716,-0.0682,-0.0536,-0.0327,-0.0241,-0.0111,-0.0095,-0.0023,0.0056,-0.0056,0.002,0.0007,-0.0082,0,0,0,0,0,0,-0.0615,-0.0645,-0.066,-0.0686,-0.071,-0.0749,-0.077,-0.0767,-0.0714,-0.0682,-0.0565,-0.0513,-0.0308,-0.0385,-0.0105,-0.0071,-0.013,0.0151,0.0153,0.0027,0.0015,0.0005,-0.0091,0,0,0,0,0]}]]